QPF
0.01 0.00 0.00 0.00 0.00 0.00 0.00 0.00 0.00 0.00 0.00 0.00 0.00 0.00 0.00 0.00 0.00 0.00 0.00 0.00 0.00 0.00 0.00 0.00 0.00 0.00 0.00 0.01 0.01 0.44 0.31 0.02 0.04 0.04 0.04 0.14 0.09 0.01 0.00 0.00 0.00 0.00 0.00 0.00 0.00
0.01 0.01 0.00 0.00 0.00 0.00 0.00 0.00 0.00 0.00 0.00 0.00 0.00 0.00 0.00 0.00 0.00 0.00 0.00 0.00 0.00 0.00 0.00 0.00 0.00 0.00 0.00 0.00 0.00 0.02 0.01 0.03 0.04 0.00 0.03 0.06 0.06 0.00 0.01 0.00 0.00 0.00 0.00 0.00 0.00
0.01 0.01 0.00 0.00 0.00 0.00 0.00 0.00 0.00 0.00 0.00 0.00 0.00 0.00 0.00 0.00 0.00 0.00 0.00 0.00 0.00 0.00 0.00 0.00 0.00 0.00 0.00 0.00 0.00 0.00 0.04 0.05 0.04 0.02 0.02 0.07 0.03 0.02 0.01 0.00 0.00 0.00 0.00 0.00 0.00
0.01 0.01 0.00 0.00 0.00 0.00 0.00 0.00 0.00 0.00 0.00 0.00 0.00 0.00 0.00 0.00 0.00 0.00 0.00 0.00 0.00 0.00 0.00 0.00 0.00 0.00 0.00 0.00 0.00 0.00 0.02 0.01 0.00 0.01 0.03 0.03 0.00 0.02 0.00 0.00 0.00 0.00 0.00 0.00 0.00
0.00 0.00 0.00 0.00 0.00 0.00 0.00 0.00 0.00 0.00 0.00 0.00 0.00 0.00 0.00 0.00 0.00 0.00 0.00 0.00 0.00 0.00 0.00 0.00 0.00 0.00 0.00 0.00 0.00 0.01 0.05 0.04 0.00 0.01 0.00 0.00 0.00 0.00 0.02 0.00 0.00 0.00 0.00 0.00 0.00
0.00 0.00 0.00 0.00 0.00 0.00 0.00 0.00 0.00 0.00 0.00 0.00 0.00 0.00 0.00 0.00 0.00 0.00 0.00 0.00 0.00 0.00 0.00 0.00 0.00 0.00 0.00 0.00 0.00 0.02 0.08 0.01 0.00 0.03 0.04 0.02 0.08 0.02 0.01 0.00 0.00 0.00 0.00 0.00 0.00
0.00 0.00 0.00 0.00 0.00 0.00 0.00 0.00 0.00 0.00 0.00 0.00 0.00 0.00 0.00 0.00 0.00 0.00 0.00 0.00 0.00 0.00 0.00 0.00 0.00 0.00 0.00 0.00 0.00 0.04 0.11 0.08 0.03 0.01 0.02 0.10 0.19 0.04 0.00 0.05 0.02 0.00 0.00 0.00 0.00
0.00 0.00 0.00 0.00 0.00 0.00 0.00 0.00 0.00 0.00 0.00 0.00 0.00 0.00 0.00 0.00 0.00 0.00 0.00 0.00 0.00 0.00 0.00 0.00 0.00 0.00 0.00 0.00 0.00 0.24 0.08 0.01 0.05 0.17 0.01 0.02 0.04 0.03 0.02 0.08 0.05 0.00 0.00 0.00 0.00
0.00 0.00 0.00 0.00 0.00 0.00 0.00 0.00 0.00 0.00 0.00 0.00 0.00 0.00 0.00 0.00 0.00 0.00 0.00 0.00 0.00 0.00 0.00 0.00 0.00 0.00 0.00 0.00 0.00 0.04 0.04 0.00 0.00 0.03 0.00 0.00 0.00 0.02 0.02 0.05 0.04 0.00 0.00 0.01 0.01
0.00 0.00 0.00 0.00 0.00 0.00 0.00 0.00 0.00 0.00 0.00 0.00 0.00 0.00 0.00 0.00 0.00 0.00 0.00 0.00 0.00 0.00 0.00 0.00 0.00 0.00 0.00 0.00 0.00 0.00 0.01 0.00 0.00 0.00 0.00 0.00 0.00 0.00 0.00 0.03 0.05 0.04 0.00 0.00 0.01
0.00 0.00 0.00 0.00 0.00 0.00 0.00 0.00 0.00 0.00 0.00 0.00 0.00 0.00 0.00 0.00 0.00 0.00 0.00 0.00 0.00 0.00 0.00 0.00 0.00 0.00 0.00 0.00 0.00 0.00 0.00 0.00 0.00 0.00 0.01 0.02 0.00 0.00 0.00 0.01 0.04 0.06 0.01 0.00 0.01
0.00 0.00 0.00 0.00 0.00 0.00 0.00 0.00 0.00 0.00 0.00 0.00 0.00 0.00 0.00 0.00 0.00 0.00 0.00 0.00 0.00 0.00 0.00 0.00 0.00 0.00 0.00 0.00 0.00 0.00 0.00 0.00 0.00 0.01 0.04 0.14 0.09 0.04 0.00 0.02 0.07 0.04 0.03 0.01 0.00
0.00 0.00 0.00 0.00 0.00 0.00 0.00 0.00 0.00 0.00 0.00 0.00 0.00 0.00 0.00 0.00 0.00 0.00 0.00 0.00 0.00 0.00 0.00 0.00 0.00 0.00 0.00 0.00 0.00 0.00 0.00 0.00 0.00 0.00 0.08 0.12 0.07 0.05 0.03 0.00 0.02 0.06 0.03 0.03 0.00
0.00 0.00 0.00 0.00 0.00 0.00 0.00 0.00 0.00 0.00 0.00 0.00 0.00 0.00 0.00 0.00 0.00 0.00 0.00 0.00 0.00 0.00 0.00 0.00 0.00 0.00 0.00 0.00 0.00 0.00 0.00 0.00 0.01 0.00 0.03 0.02 0.02 0.01 0.01 0.00 0.00 0.01 0.01 0.00 0.01
0.00 0.00 0.00 0.00 0.00 0.00 0.00 0.00 0.00 0.00 0.00 0.00 0.00 0.00 0.00 0.00 0.00 0.00 0.00 0.00 0.00 0.00 0.00 0.00 0.00 0.00 0.00 0.00 0.00 0.00 0.00 0.00 0.00 0.00 0.00 0.01 0.01 0.00 0.00 0.00 0.00 0.00 0.00 0.00 0.01
0.00 0.00 0.00 0.00 0.00 0.00 0.00 0.00 0.00 0.00 0.00 0.00 0.00 0.00 0.00 0.00 0.00 0.00 0.00 0.00 0.00 0.00 0.00 0.00 0.00 0.00 0.00 0.00 0.00 0.00 0.00 0.00 0.00 0.00 0.00 0.00 0.00 0.00 0.00 0.00 0.00 0.00 0.00 0.00 0.00
0.00 0.00 0.00 0.00 0.00 0.00 0.00 0.00 0.00 0.00 0.00 0.00 0.00 0.00 0.00 0.00 0.00 0.00 0.00 0.00 0.00 0.00 0.00 0.00 0.00 0.00 0.00 0.00 0.00 0.00 0.00 0.00 0.00 0.00 0.00 0.00 0.00 0.00 0.00 0.00 0.00 0.00 0.00 0.00 0.00
0.00 0.00 0.00 0.00 0.00 0.00 0.00 0.00 0.00 0.00 0.00 0.00 0.00 0.00 0.00 0.00 0.00 0.00 0.00 0.00 0.00 0.00 0.00 0.00 0.00 0.00 0.00 0.00 0.00 0.00 0.00 0.00 0.00 0.00 0.00 0.00 0.00 0.01 0.00 0.00 0.01 0.00 0.00 0.00 0.00
0.00 0.00 0.00 0.00 0.00 0.00 0.00 0.00 0.00 0.00 0.00 0.00 0.00 0.00 0.00 0.00 0.00 0.00 0.00 0.00 0.00 0.00 0.00 0.00 0.00 0.00 0.00 0.00 0.00 0.00 0.00 0.00 0.00 0.00 0.00 0.00 0.00 0.01 0.00 0.00 0.00 0.00 0.00 0.00 0.00
0.00 0.00 0.00 0.00 0.00 0.00 0.00 0.00 0.00 0.00 0.00 0.00 0.00 0.00 0.00 0.00 0.00 0.00 0.00 0.00 0.00 0.00 0.00 0.00 0.00 0.00 0.00 0.00 0.00 0.00 0.00 0.00 0.00 0.00 0.00 0.00 0.00 0.00 0.00 0.01 0.01 0.00 0.00 0.00 0.00
0.00 0.00 0.00 0.00 0.00 0.00 0.00 0.00 0.00 0.00 0.00 0.00 0.00 0.00 0.00 0.00 0.00 0.00 0.00 0.00 0.00 0.00 0.00 0.00 0.00 0.00 0.00 0.00 0.00 0.00 0.00 0.00 0.00 0.00 0.00 0.00 0.00 0.00 0.00 0.02 0.01 0.00 0.00 0.00 0.00
0.00 0.00 0.00 0.00 0.00 0.00 0.00 0.00 0.00 0.00 0.00 0.00 0.00 0.00 0.00 0.00 0.00 0.00 0.00 0.00 0.00 0.00 0.00 0.00 0.00 0.00 0.00 0.00 0.00 0.00 0.00 0.00 0.00 0.00 0.00 0.00 0.00 0.00 0.00 0.00 0.01 0.00 0.02 0.02 0.01
0.00 0.00 0.00 0.00 0.00 0.00 0.00 0.00 0.00 0.00 0.00 0.00 0.00 0.00 0.00 0.00 0.00 0.00 0.00 0.00 0.00 0.00 0.00 0.00 0.00 0.00 0.00 0.00 0.00 0.00 0.00 0.00 0.00 0.00 0.00 0.00 0.00 0.00 0.00 0.00 0.01 0.00 0.01 0.01 0.00
0.00 0.00 0.00 0.00 0.00 0.00 0.00 0.00 0.00 0.00 0.00 0.00 0.00 0.00 0.00 0.00 0.00 0.00 0.00 0.00 0.00 0.00 0.00 0.00 0.00 0.00 0.00 0.00 0.00 0.00 0.00 0.00 0.00 0.00 0.00 0.01 0.00 0.00 0.00 0.00 0.00 0.00 0.00 0.00 0.00
0.00 0.00 0.00 0.00 0.00 0.00 0.00 0.00 0.00 0.00 0.00 0.00 0.00 0.00 0.00 0.00 0.00 0.00 0.00 0.00 0.00 0.00 0.00 0.00 0.00 0.00 0.00 0.00 0.00 0.00 0.00 0.00 0.00 0.00 0.00 0.00 0.01 0.00 0.00 0.00 0.00 0.00 0.00 0.00 0.00
0.00 0.00 0.00 0.00 0.00 0.00 0.00 0.00 0.00 0.00 0.00 0.00 0.00 0.00 0.00 0.00 0.00 0.00 0.00 0.00 0.00 0.00 0.00 0.00 0.00 0.00 0.00 0.00 0.00 0.00 0.00 0.00 0.00 0.00 0.00 0.00 0.00 0.01 0.00 0.00 0.00 0.00 0.00 0.00 0.00
0.00 0.00 0.00 0.00 0.00 0.00 0.00 0.00 0.00 0.00 0.00 0.00 0.00 0.00 0.00 0.00 0.00 0.00 0.00 0.00 0.00 0.00 0.00 0.00 0.00 0.00 0.00 0.00 0.00 0.00 0.00 0.00 0.00 0.00 0.00 0.00 0.00 0.01 0.00 0.00 0.00 0.00 0.00 0.00 0.00
MSLP
1017.07 1016.77 1016.43 1016.03 1015.59 1015.21 1014.89 1014.67 1014.39 1014.14 1013.98 1013.86 1013.68 1013.50 1013.25 1012.96 1012.34 1012.45 1011.36 1008.96 1008.79 1008.71 1009.00 1008.93 1009.28 1009.39 1010.16 1011.03 1012.55 1013.94 1014.77 1014.34 1014.19 1013.59 1012.64 1011.91 1011.76 1010.86 1009.79 1009.75 1010.21 1010.31 1011.51 1012.77 1013.83
1017.05 1016.74 1016.40 1015.99 1015.54 1015.17 1014.79 1014.48 1014.26 1013.97 1013.79 1013.66 1013.56 1013.36 1013.11 1012.87 1012.42 1010.97 1008.35 1008.19 1008.25 1008.43 1008.82 1008.66 1008.71 1009.21 1009.94 1010.44 1011.64 1012.64 1013.18 1012.48 1012.43 1012.31 1012.14 1011.92 1012.02 1011.52 1010.57 1010.64 1010.80 1011.48 1012.47 1013.21 1013.83
1017.06 1016.74 1016.37 1015.96 1015.51 1015.04 1014.63 1014.29 1014.06 1013.85 1013.66 1013.52 1013.40 1013.23 1012.97 1012.79 1011.90 1008.42 1006.84 1007.50 1008.00 1008.16 1008.12 1008.10 1008.59 1009.14 1008.94 1009.01 1010.14 1010.96 1011.44 1011.30 1011.28 1011.56 1011.36 1011.90 1012.19 1011.77 1011.27 1011.28 1010.47 1011.33 1012.46 1013.12 1013.75
1016.96 1016.60 1016.29 1015.87 1015.38 1014.85 1014.43 1014.08 1013.85 1013.66 1013.50 1013.40 1013.30 1013.08 1012.83 1012.62 1010.33 1007.01 1006.40 1007.18 1007.89 1008.01 1007.98 1008.02 1008.42 1008.68 1008.68 1008.65 1009.13 1009.75 1010.12 1009.89 1010.58 1011.08 1011.33 1011.98 1011.90 1011.64 1011.32 1011.05 1011.03 1011.19 1011.87 1012.54 1013.35
1016.88 1016.40 1015.95 1015.56 1015.14 1014.63 1014.12 1013.77 1013.56 1013.42 1013.30 1013.22 1013.15 1012.96 1012.72 1011.69 1008.80 1006.56 1006.80 1007.29 1007.90 1007.98 1007.80 1008.05 1008.27 1008.29 1008.63 1008.51 1008.85 1009.89 1010.73 1010.02 1010.38 1011.10 1011.33 1011.78 1012.00 1011.86 1011.77 1011.63 1011.43 1011.75 1012.06 1012.43 1013.01
1016.66 1016.23 1015.78 1015.30 1014.86 1014.42 1013.93 1013.45 1013.20 1013.06 1012.98 1012.97 1012.99 1012.95 1012.46 1010.15 1006.40 1006.41 1006.90 1007.54 1007.62 1007.79 1007.63 1007.67 1007.67 1008.06 1008.53 1008.78 1009.34 1009.99 1010.58 1010.88 1011.08 1011.35 1011.63 1011.82 1012.29 1012.16 1012.54 1012.25 1011.72 1011.79 1011.86 1011.97 1012.78
1016.64 1016.18 1015.74 1015.16 1014.65 1014.18 1013.68 1013.14 1012.82 1012.68 1012.66 1012.69 1012.74 1012.67 1011.66 1007.98 1006.07 1006.46 1006.76 1007.12 1007.23 1007.37 1007.40 1007.20 1007.37 1008.20 1008.22 1009.69 1010.17 1010.50 1011.20 1011.59 1011.39 1011.17 1011.57 1011.97 1012.87 1012.69 1012.84 1012.98 1012.23 1011.74 1011.74 1011.55 1012.13
1016.58 1016.08 1015.61 1015.09 1014.35 1013.78 1013.34 1012.82 1012.40 1012.23 1012.29 1012.45 1012.58 1012.34 1010.00 1006.14 1006.07 1006.50 1006.88 1006.85 1006.92 1007.06 1007.10 1006.77 1007.04 1007.51 1007.86 1009.31 1010.48 1011.06 1011.85 1012.17 1011.53 1010.78 1011.24 1011.84 1012.96 1013.03 1013.14 1012.78 1012.69 1012.04 1011.72 1011.67 1011.91
1016.44 1015.89 1015.32 1014.64 1014.08 1013.50 1012.81 1012.34 1011.97 1011.77 1012.04 1012.33 1012.47 1011.71 1008.62 1005.71 1006.06 1005.55 1006.16 1006.36 1006.55 1006.72 1006.74 1006.55 1006.74 1007.46 1008.08 1009.69 1011.13 1012.09 1012.30 1012.34 1012.26 1011.94 1011.96 1012.16 1013.05 1013.30 1013.47 1013.10 1013.52 1012.43 1012.00 1011.76 1012.24
1016.30 1015.62 1014.87 1014.17 1013.64 1013.25 1012.55 1011.77 1011.65 1011.82 1012.06 1012.07 1011.43 1010.94 1007.55 1005.64 1004.93 1005.18 1005.54 1005.78 1006.40 1006.62 1006.88 1006.83 1007.54 1008.20 1009.02 1009.95 1010.88 1011.20 1011.69 1011.73 1011.66 1011.76 1012.24 1012.31 1012.95 1013.48 1013.62 1013.67 1013.61 1012.79 1012.39 1012.25 1012.40
1015.93 1015.25 1014.49 1013.77 1013.23 1013.01 1012.47 1011.76 1012.02 1011.53 1011.11 1009.72 1008.62 1007.71 1006.05 1004.74 1004.30 1004.89 1005.00 1005.53 1006.09 1006.74 1007.38 1007.54 1008.43 1008.57 1008.89 1009.33 1009.29 1009.55 1010.43 1010.83 1011.12 1011.42 1011.85 1012.31 1012.68 1012.72 1012.94 1013.50 1013.72 1013.55 1012.38 1012.35 1012.17
1015.69 1014.92 1014.16 1013.30 1012.76 1012.49 1012.67 1011.58 1009.40 1008.57 1008.55 1007.54 1006.88 1006.20 1005.22 1004.92 1005.13 1004.82 1004.93 1005.89 1006.45 1007.22 1007.55 1008.25 1008.16 1007.58 1007.92 1008.31 1008.53 1008.99 1009.56 1010.11 1010.83 1011.25 1011.64 1012.61 1012.65 1011.88 1011.65 1011.80 1012.22 1013.02 1013.01 1012.35 1011.98
1015.49 1014.73 1013.85 1012.75 1012.06 1012.06 1011.62 1009.96 1007.82 1008.24 1008.21 1005.67 1004.73 1004.74 1004.36 1004.72 1004.80 1004.39 1004.97 1005.61 1006.41 1007.18 1007.53 1007.86 1006.86 1006.74 1007.22 1007.51 1008.09 1008.42 1008.54 1009.09 1009.95 1011.27 1011.59 1012.29 1012.61 1012.40 1011.41 1011.44 1011.52 1011.92 1012.34 1011.97 1011.84
1015.17 1014.56 1013.88 1012.63 1011.60 1011.62 1010.16 1008.00 1007.94 1007.82 1008.02 1005.36 1003.64 1002.64 1003.34 1003.69 1003.85 1003.39 1004.03 1005.19 1006.22 1006.54 1007.25 1007.33 1005.96 1006.21 1006.16 1006.53 1006.69 1007.37 1006.89 1007.89 1009.18 1010.12 1011.35 1011.77 1012.51 1012.29 1011.73 1011.70 1011.50 1010.80 1009.99 1010.96 1010.96
1014.85 1014.24 1013.92 1013.75 1012.99 1011.70 1008.73 1007.93 1007.55 1007.64 1007.56 1003.65 1002.66 1001.11 1001.93 1003.21 1002.87 1003.36 1003.46 1004.56 1005.25 1005.96 1006.90 1006.27 1005.66 1005.54 1005.51 1005.15 1005.25 1005.82 1005.83 1006.76 1008.17 1009.20 1010.40 1011.93 1012.64 1011.06 1010.93 1010.73 1010.42 1010.06 1010.11 1010.36 1010.59
1014.28 1013.91 1013.68 1013.20 1012.90 1009.94 1008.86 1008.55 1007.88 1008.62 1006.32 1003.12 1001.80 1001.79 1002.65 1002.90 1002.85 1003.34 1003.83 1004.15 1004.26 1005.32 1005.80 1005.78 1004.67 1004.54 1003.94 1003.63 1003.89 1004.36 1005.28 1006.54 1007.78 1009.30 1010.34 1010.73 1011.27 1011.15 1010.55 1008.56 1009.25 1009.27 1009.38 1009.60 1009.98
1013.40 1012.82 1013.36 1012.58 1010.60 1009.05 1009.10 1009.01 1009.36 1008.07 1005.08 1003.28 1002.51 1002.18 1002.56 1002.89 1002.99 1003.47 1004.23 1004.58 1004.88 1005.51 1006.03 1005.46 1004.58 1003.78 1003.44 1003.63 1003.71 1004.41 1006.31 1007.94 1009.34 1010.25 1010.43 1009.96 1010.04 1009.33 1008.29 1008.03 1007.76 1008.24 1008.33 1008.83 1009.14
1012.59 1011.36 1011.02 1010.52 1009.46 1009.67 1009.55 1009.90 1009.50 1006.94 1005.46 1003.79 1003.47 1003.26 1003.20 1002.86 1002.94 1003.31 1003.90 1004.66 1004.75 1005.11 1005.87 1005.94 1004.54 1003.32 1002.62 1002.94 1003.54 1004.69 1006.25 1008.17 1009.62 1010.71 1010.28 1009.68 1008.98 1007.73 1006.69 1006.63 1006.70 1007.62 1008.04 1008.50 1009.19
1011.72 1010.75 1010.38 1008.38 1009.07 1009.68 1010.15 1010.44 1008.52 1006.81 1005.41 1004.67 1003.57 1003.17 1003.19 1003.03 1002.93 1003.55 1003.42 1003.67 1003.70 1004.25 1005.18 1005.24 1004.28 1002.66 1002.18 1001.87 1002.93 1004.46 1005.82 1006.48 1009.12 1010.44 1010.38 1009.50 1008.56 1007.17 1006.26 1006.47 1006.45 1007.31 1007.99 1008.22 1008.72
1012.29 1011.23 1009.28 1007.39 1008.42 1009.28 1010.33 1010.04 1008.22 1006.38 1005.61 1004.98 1004.83 1003.98 1003.84 1003.31 1003.17 1003.52 1003.21 1002.26 1002.48 1002.62 1002.94 1003.84 1004.16 1002.44 1001.82 1001.78 1002.53 1003.38 1004.50 1006.74 1008.87 1010.29 1010.48 1009.56 1008.63 1007.38 1006.86 1006.87 1006.48 1006.62 1007.48 1007.90 1008.32
1012.14 1010.99 1007.56 1007.15 1008.16 1009.77 1010.49 1009.47 1007.55 1005.93 1005.50 1005.00 1004.59 1004.31 1003.81 1003.14 1002.87 1002.82 1002.40 1001.75 1001.46 1001.23 1002.05 1002.87 1003.76 1002.69 1002.46 1002.45 1002.61 1003.43 1004.37 1006.05 1007.55 1008.77 1009.29 1009.23 1008.23 1006.17 1005.78 1005.96 1006.05 1006.66 1006.73 1007.83 1007.95
1013.64 1011.65 1007.70 1007.27 1009.23 1009.98 1010.13 1008.62 1007.06 1005.84 1004.91 1004.74 1003.96 1003.53 1003.20 1003.24 1002.88 1002.57 1002.06 1001.65 1000.56 1000.30 1001.51 1001.76 1002.91 1003.53 1002.75 1001.82 1001.80 1002.30 1003.24 1004.78 1007.24 1008.00 1008.13 1007.96 1006.76 1005.28 1005.25 1005.16 1005.49 1006.28 1006.80 1007.21 1007.56
1015.20 1012.63 1008.06 1008.15 1009.53 1010.30 1009.53 1008.46 1007.20 1005.94 1004.81 1004.06 1003.54 1002.93 1002.71 1002.93 1003.13 1002.50 1001.75 1000.78 1000.52 1000.29 1000.59 1001.16 1002.59 1003.28 1003.04 1002.45 1001.78 1002.26 1002.99 1004.26 1005.40 1006.55 1007.22 1007.25 1006.20 1005.49 1005.16 1005.43 1005.63 1006.00 1006.56 1007.42 1007.71
1015.51 1013.70 1010.84 1009.81 1010.53 1011.05 1010.61 1008.98 1007.65 1006.01 1004.92 1004.36 1003.84 1002.95 1002.73 1002.88 1003.00 1002.89 1002.24 1001.14 1000.91 1000.70 1000.03 1000.62 1001.72 1002.89 1002.93 1002.74 1002.30 1002.45 1002.65 1003.55 1004.78 1006.34 1006.70 1006.33 1006.29 1005.78 1005.30 1005.38 1005.62 1005.77 1006.52 1007.48 1007.26
1015.53 1015.02 1014.03 1013.26 1012.18 1012.13 1011.34 1009.84 1008.42 1006.94 1005.49 1004.74 1004.15 1003.99 1003.75 1003.74 1003.71 1003.79 1003.10 1002.18 1001.38 1001.39 1001.22 1001.62 1002.23 1002.59 1002.49 1002.26 1002.07 1001.97 1002.24 1003.04 1003.95 1004.89 1005.74 1005.35 1005.32 1004.99 1003.71 1004.09 1004.61 1005.49 1006.29 1006.71 1007.53
1016.21 1016.18 1015.25 1014.51 1013.53 1012.78 1011.61 1010.46 1009.34 1008.05 1007.26 1005.83 1005.54 1004.97 1004.72 1005.35 1005.63 1005.50 1004.98 1003.85 1003.02 1002.38 1002.27 1002.46 1002.65 1002.54 1002.55 1002.34 1002.04 1001.97 1001.69 1001.98 1002.75 1003.94 1004.38 1004.20 1004.17 1004.59 1004.37 1004.26 1004.78 1005.13 1005.85 1006.62 1007.28
1017.26 1016.59 1016.14 1015.00 1014.28 1013.69 1012.52 1011.70 1010.32 1009.39 1007.60 1006.99 1006.26 1005.74 1005.40 1005.23 1005.06 1004.96 1004.98 1004.59 1004.10 1003.75 1003.55 1003.67 1003.75 1003.75 1003.63 1002.81 1002.52 1002.33 1001.52 1001.32 1001.64 1002.26 1002.83 1003.26 1003.22 1003.72 1004.53 1004.40 1003.95 1004.53 1004.97 1005.79 1006.81
Thickness
5750 5753 5756 5760 5763 5766 5769 5771 5774 5777 5778 5779 5780 5782 5784 5786 5791 5789 5791 5813 5816 5818 5815 5813 5807 5804 5796 5780 5769 5757 5725 5720 5729 5729 5747 5762 5755 5779 5795 5785 5785 5791 5777 5772 5768
5752 5755 5758 5762 5766 5769 5772 5775 5777 5780 5781 5782 5783 5784 5786 5787 5790 5794 5821 5822 5821 5820 5812 5806 5798 5798 5780 5778 5769 5756 5735 5747 5757 5758 5751 5762 5759 5765 5773 5773 5774 5773 5775 5772 5767
5753 5756 5760 5764 5768 5772 5775 5778 5781 5782 5783 5784 5785 5786 5788 5788 5791 5810 5834 5828 5823 5821 5820 5816 5806 5793 5783 5788 5777 5769 5749 5769 5772 5770 5773 5760 5754 5763 5763 5758 5773 5766 5767 5767 5764
5755 5758 5762 5766 5770 5775 5778 5781 5783 5785 5786 5787 5787 5788 5789 5789 5784 5828 5838 5830 5824 5822 5817 5809 5799 5786 5780 5778 5788 5769 5783 5788 5782 5775 5767 5757 5764 5758 5768 5768 5778 5779 5777 5771 5764
5756 5760 5765 5769 5773 5777 5781 5784 5786 5787 5788 5788 5789 5790 5791 5790 5800 5837 5834 5828 5823 5819 5811 5800 5791 5788 5773 5787 5788 5769 5765 5785 5784 5773 5769 5767 5760 5761 5762 5773 5778 5776 5776 5772 5767
5757 5762 5766 5770 5775 5779 5783 5787 5789 5790 5791 5790 5790 5790 5790 5784 5840 5838 5832 5824 5820 5815 5810 5806 5798 5797 5780 5779 5774 5778 5770 5773 5773 5771 5769 5763 5756 5762 5758 5767 5774 5771 5769 5775 5769
5757 5762 5766 5771 5776 5780 5784 5789 5792 5793 5792 5792 5791 5792 5789 5803 5842 5837 5833 5825 5823 5817 5806 5812 5810 5791 5791 5765 5779 5776 5759 5759 5764 5770 5768 5767 5740 5747 5758 5759 5766 5774 5771 5775 5772
5757 5761 5766 5770 5776 5781 5785 5790 5793 5794 5793 5792 5790 5790 5792 5841 5839 5833 5829 5824 5825 5822 5815 5818 5815 5799 5790 5783 5773 5757 5751 5738 5761 5774 5775 5764 5731 5747 5754 5758 5756 5769 5770 5773 5773
5756 5761 5766 5772 5776 5781 5787 5791 5793 5794 5792 5789 5787 5788 5792 5842 5826 5837 5832 5819 5820 5819 5817 5821 5812 5791 5787 5756 5740 5744 5729 5734 5743 5761 5761 5754 5734 5743 5750 5752 5744 5761 5768 5771 5767
5755 5761 5768 5773 5778 5781 5787 5793 5792 5791 5788 5788 5792 5782 5809 5814 5833 5835 5835 5828 5812 5809 5801 5799 5782 5765 5755 5742 5716 5729 5730 5743 5740 5753 5751 5749 5740 5743 5743 5744 5743 5754 5765 5766 5763
5756 5761 5768 5774 5778 5779 5784 5789 5784 5783 5786 5791 5797 5800 5816 5833 5841 5826 5831 5820 5812 5797 5769 5780 5757 5741 5752 5759 5765 5763 5750 5748 5754 5758 5750 5749 5747 5747 5749 5744 5738 5743 5758 5762 5765
5754 5761 5767 5774 5778 5779 5777 5782 5794 5804 5781 5806 5810 5811 5824 5826 5805 5815 5827 5796 5789 5766 5775 5759 5743 5768 5774 5774 5773 5761 5753 5751 5754 5758 5753 5740 5735 5757 5762 5761 5756 5746 5746 5759 5768
5752 5758 5764 5773 5779 5778 5780 5787 5810 5805 5777 5802 5818 5812 5815 5817 5800 5804 5812 5797 5781 5765 5765 5746 5767 5784 5774 5768 5761 5758 5753 5755 5753 5751 5751 5741 5734 5745 5763 5764 5765 5764 5761 5767 5768
5748 5753 5758 5768 5776 5775 5781 5803 5802 5804 5748 5779 5806 5820 5821 5819 5799 5825 5821 5801 5780 5764 5764 5757 5784 5777 5773 5764 5766 5742 5782 5778 5761 5746 5721 5748 5718 5731 5749 5752 5759 5771 5776 5771 5775
5745 5749 5753 5752 5757 5766 5791 5798 5803 5791 5713 5804 5806 5846 5825 5803 5813 5806 5824 5801 5776 5773 5766 5758 5775 5771 5765 5773 5781 5767 5793 5782 5770 5754 5739 5728 5716 5740 5754 5752 5761 5773 5777 5780 5781
5745 5747 5750 5752 5753 5778 5786 5789 5788 5732 5716 5791 5814 5803 5795 5800 5805 5807 5802 5808 5803 5779 5777 5770 5796 5789 5785 5798 5798 5803 5790 5770 5764 5746 5722 5737 5733 5730 5738 5773 5772 5780 5782 5784 5783
5746 5751 5746 5751 5763 5779 5779 5772 5725 5708 5779 5784 5786 5797 5790 5785 5789 5789 5779 5771 5759 5748 5741 5763 5774 5789 5797 5784 5789 5789 5745 5705 5710 5708 5713 5744 5744 5744 5775 5783 5787 5782 5787 5785 5788
5750 5760 5761 5764 5773 5771 5769 5741 5715 5750 5755 5785 5782 5781 5770 5784 5782 5783 5771 5758 5769 5766 5743 5735 5735 5783 5801 5785 5770 5765 5745 5704 5705 5697 5721 5750 5730 5752 5790 5799 5800 5792 5788 5786 5781
5754 5762 5763 5778 5772 5766 5748 5712 5725 5746 5769 5762 5771 5764 5765 5777 5784 5772 5769 5771 5776 5771 5747 5731 5744 5795 5799 5803 5790 5766 5745 5761 5717 5720 5709 5730 5751 5773 5792 5789 5794 5788 5783 5782 5783
5743 5748 5760 5780 5772 5759 5729 5715 5736 5765 5765 5764 5743 5760 5750 5762 5765 5759 5759 5788 5785 5792 5791 5771 5744 5789 5799 5805 5799 5778 5781 5742 5715 5699 5700 5720 5734 5733 5761 5770 5786 5789 5779 5780 5783
5742 5741 5769 5776 5767 5737 5710 5718 5747 5766 5765 5757 5752 5747 5753 5760 5766 5763 5768 5785 5797 5801 5796 5782 5761 5772 5787 5775 5769 5769 5761 5756 5742 5725 5706 5701 5720 5768 5776 5776 5784 5788 5789 5778 5781
5719 5727 5767 5771 5726 5719 5713 5736 5756 5756 5766 5757 5766 5763 5764 5763 5758 5759 5764 5775 5807 5808 5773 5786 5756 5742 5765 5798 5801 5789 5775 5757 5722 5736 5736 5722 5734 5788 5786 5796 5796 5791 5788 5783 5785
5698 5713 5761 5755 5710 5709 5725 5736 5748 5749 5752 5757 5756 5771 5775 5764 5748 5764 5772 5799 5802 5801 5788 5785 5750 5730 5745 5768 5789 5783 5783 5771 5753 5741 5739 5731 5736 5777 5787 5787 5789 5787 5787 5780 5781
5695 5699 5722 5729 5717 5712 5706 5718 5724 5752 5751 5751 5751 5762 5765 5757 5758 5753 5762 5788 5792 5794 5802 5797 5753 5745 5727 5748 5769 5767 5778 5769 5752 5723 5732 5732 5743 5757 5773 5775 5781 5784 5782 5775 5783
5690 5691 5692 5680 5695 5694 5699 5707 5712 5717 5740 5743 5739 5740 5737 5734 5732 5732 5752 5762 5780 5778 5782 5774 5752 5754 5758 5768 5773 5774 5775 5769 5758 5745 5734 5756 5751 5757 5782 5781 5782 5782 5778 5779 5777
5676 5669 5673 5675 5680 5683 5689 5694 5697 5706 5708 5715 5713 5723 5719 5705 5712 5710 5720 5736 5749 5760 5760 5758 5750 5759 5759 5767 5768 5764 5776 5779 5771 5754 5749 5758 5760 5769 5776 5781 5779 5782 5782 5778 5776
5661 5664 5661 5666 5666 5665 5669 5671 5681 5688 5706 5709 5709 5706 5705 5712 5723 5726 5727 5731 5737 5743 5740 5738 5733 5727 5726 5752 5750 5732 5757 5772 5777 5767 5763 5750 5765 5775 5765 5776 5787 5787 5791 5786 5781